Regional Weather Roundup
Issued by NWS Green Bay, WI

Home | Current Version | Previous Version | Text Only | Print | Product List | Glossary On
Versions: 1 2 3 4 5 6 7 8 9 10 11 12 13 14 15 16 17 18 19 20 21 22 23 24 25 26 27 28 29 30 31 32 33 34 35 36 37 38 39 40 41 42 43 44 45 46 47 48 49 50
000
ASUS43 KGRB 112111
RWRGRB

NORTH-CENTRAL AND NORTHEAST WISCONSIN REGIONAL WEATHER ROUNDUP
NATIONAL WEATHER SERVICE GREEN BAY WI
300 PM CST THU FEB 11 2016

WIZ005-009-010>012-018-019-112200-
NORTH CENTRAL WISCONSIN

CITY           SKY/WX    TMP DP  RH WIND       PRES   REMARKS
IRONWOOD       SUNNY     12   0  57 SW10      30.10F WCI  -1
MANITOWISH WTR PTSUNNY   13  -4  47 SW8       30.10F WCI   1
ARBOR VITAE    SUNNY     17  -1  46 SW6       30.10F WCI   8
EAGLE RIVER    SUNNY     14  -6  39 W7        30.09F WCI   4
LAND O LAKES   PTSUNNY   15  -1  49 NW5       30.09S WCI   7
RHINELANDER    SUNNY     15  -5  40 W12       30.11F WCI   2
PHILLIPS       CLOUDY    13  -6  41 SW9       30.13F WCI   1
ANTIGO         SUNNY     15  -3  46 W12       30.13S WCI   1
TOMAHAWK       MOSUNNY   15  -9  34 W9        30.13F WCI   3
MERRILL        MOSUNNY   18  -3  39 SW6       30.16F WCI   9
$$

WIZ013-073-112200-
NORTHEAST WISCONSIN

CITY           SKY/WX    TMP DP  RH WIND       PRES   REMARKS
IRON MOUNTAIN  SUNNY     18   1  47 NW9       30.10F WCI   7
MARINETTE      SUNNY     19   1  45 SW8       30.17F WCI   9
OCONTO         SUNNY     18   1  45 SW9       30.19F WCI   7
$$

WIZ017-030-035>037-045-112200-
CENTRAL WISCONSIN

CITY           SKY/WX    TMP DP  RH WIND       PRES   REMARKS
MEDFORD        PTSUNNY   11  -2  53 SW6       30.15F WCI   2
WAUSAU         SUNNY     14  -3  47 W8        30.17F WCI   3
MOSINEE        SUNNY     12  -4  48 W9        30.18F WCI   0
MARSHFIELD     SUNNY     14  -4  44 W7        30.18F WCI   4
WISC RAPIDS    SUNNY     16  -5  39 W8        30.22F WCI   5
STEVENS POINT  SUNNY     14  -7  38 NW5       30.20F WCI   6
WAUPACA        SUNNY     20  -3  36 SW8       30.22F
SHAWANO        SUNNY     21   0  39 SW10      30.20S
CLINTONVILLE   SUNNY     19  -4  35 W10       30.20S WCI   8
WAUTOMA        SUNNY     19  -4  36 W8        30.23F WCI   9
$$

WIZ038-039-048-051-112200-
FOX VALLEY

CITY           SKY/WX    TMP DP  RH WIND       PRES   REMARKS
NWS GREEN BAY  SUNNY     17   2  51 W10       30.21F WCI   5
APPLETON       MOSUNNY   18  -2  41 SW14      30.20F WCI   4
OSHKOSH        SUNNY     17   0  47 W7        30.22F WCI   8
FOND DU LAC    SUNNY     16  -2  45 W9        30.23F WCI   4
$$

WIZ022-050-052-112200-
EAST CENTRAL WISCONSIN

CITY           SKY/WX    TMP DP  RH WIND       PRES   REMARKS
EPHRAIM        FAIR      16   2  55 SW8       30.17S WCI   5
STURGEON BAY   SUNNY     16   1  53 SW13      30.21F WCI   2
MANITOWOC      SUNNY     17   3  54 W12       30.23F WCI   4
SHEBOYGAN      SUNNY     15   0  51 W10       30.23F WCI   2
$$

LMZ563-521-522-541>543-112200-
LAKESHORE

STATION/POSITION TIME  TEMP    WIND        PRES    VSBY  WAVE
                       AIR SEA DIR/SP/G                  HT/PER
                 (UTC) (F)     (DEG/KT/KT) (MB)    (MI)  (FT/S)
SHEBOYGAN LKSHOR 2100   16     280/  9/ 11 1025.6F
KEWAUNEE LKSHORE 2000   15     260/ 13/ 15 1022.6F
ALGOMA MARINA    2041          250/  7/ 12   N/A
CHAMBERS ISLAND  2000   17     210/  8/ 13 1022.7F
MENOMINEE LKSHOR 2000   18     210/  9     1021.3F
$$



USA.gov is the U.S. government's official web portal to all federal, state and local government web resources and services.